Temperature
28 29 29 30 29 29 29 28 28 28 27 26 26 26 25 23 22 22 21 20 19 18 18 18 18 17 17 17 17 17 17 17 17 17 17 16 16 16 16 15 15 15 15 15
29 29 30 29 29 29 29 28 29 28 26 26 26 26 25 24 23 22 21 20 19 18 18 18 17 17 17 18 18 17 17 17 17 17 17 16 16 16 16 15 15 15 15 14
29 30 30 29 29 29 29 29 28 28 27 26 26 26 25 24 23 22 21 21 20 19 18 18 17 17 17 17 18 17 17 17 17 17 17 16 16 16 16 15 15 15 15 14
29 30 29 29 29 29 29 29 28 27 27 28 26 27 26 25 24 23 22 21 20 20 19 18 18 18 18 18 17 17 17 17 17 17 17 16 16 16 16 15 15 15 15 14
29 30 29 29 29 29 29 28 27 27 27 27 27 27 27 26 25 25 23 22 21 20 19 19 18 18 18 18 17 17 17 17 17 17 17 17 16 16 16 15 15 15 15 14
30 30 30 29 29 28 27 27 27 27 28 27 27 26 27 27 26 26 24 22 21 20 19 19 18 18 18 17 17 17 17 17 17 17 17 17 17 16 16 16 15 15 15 14
29 30 30 29 29 28 28 28 28 28 28 27 26 27 27 27 26 26 25 23 21 20 20 19 18 18 18 17 17 17 17 18 18 18 17 17 17 17 16 16 16 15 15 15
29 29 30 29 29 29 28 28 27 26 27 28 27 27 28 27 26 25 24 23 22 21 20 20 19 18 18 18 17 17 17 18 18 18 18 18 17 17 16 16 16 16 15 15
29 29 29 29 29 29 28 29 29 28 27 27 28 28 28 26 26 25 25 24 23 22 21 20 20 19 19 18 18 18 18 18 18 18 18 18 18 17 17 17 16 16 16 15
30 28 29 28 28 27 28 29 28 28 26 26 27 27 28 27 26 26 25 24 23 22 22 21 20 20 19 19 18 18 18 18 18 18 18 18 18 18 17 17 17 16 16 16
30 28 29 28 28 28 27 27 28 28 27 26 26 27 28 27 27 26 26 25 24 23 23 22 21 20 20 20 19 19 19 19 19 19 19 19 18 18 18 17 17 17 16 16
29 29 28 28 28 28 28 28 27 27 26 26 27 27 27 27 27 26 26 25 24 24 23 23 22 21 21 20 20 19 19 19 19 19 19 19 19 19 18 18 18 17 17 16
28 27 27 27 27 27 27 28 28 27 27 27 26 27 27 27 26 25 25 24 24 23 23 23 22 22 21 21 20 20 20 20 20 19 19 19 19 19 19 18 18 18 17 17
27 27 27 27 27 28 27 27 27 27 27 27 27 27 27 27 26 24 24 23 23 23 22 22 22 21 21 21 20 20 20 20 20 19 19 20 20 19 19 19 18 18 18 17
27 27 27 28 28 28 28 27 27 27 27 27 27 27 27 25 24 23 22 22 22 22 22 21 21 21 20 20 20 20 20 20 20 19 19 20 19 19 19 19 19 18 18 18
26 27 27 27 28 27 27 27 27 27 27 27 27 27 25 23 22 21 21 21 21 21 20 20 20 20 20 20 20 20 20 20 20 20 19 19 19 19 19 19 18 18 18 18
26 26 26 26 27 26 26 27 27 27 27 27 27 26 23 23 21 20 20 19 19 19 19 19 19 19 19 20 20 19 19 19 19 19 19 19 19 19 19 18 18 18 18 17
25 25 26 26 25 24 27 27 27 27 27 26 25 24 23 21 18 17 17 18 17 17 17 17 18 18 18 18 18 19 18 18 18 18 18 18 17 17 17 17 17 17 17 17
25 25 25 26 25 26 26 26 26 26 26 25 24 23 21 19 19 18 16 16 16 16 16 16 17 17 17 17 17 18 17 17 17 17 17 17 17 16 16 16 16 16 16 16
23 24 25 25 24 24 26 25 24 25 25 24 23 22 21 21 23 19 15 15 14 14 15 15 15 16 16 16 16 17 16 16 16 16 16 16 16 16 15 15 15 15 15 15
23 23 24 24 24 26 25 24 24 24 24 23 22 21 21 21 20 16 15 14 14 14 14 15 15 15 15 15 16 16 16 15 15 14 14 14 14 14 14 14 14 14 14 14
24 24 23 24 24 24 24 24 24 23 22 22 21 21 20 17 16 15 14 14 14 14 14 14 14 14 14 14 14 14 14 13 13 13 13 13 13 13 13 13 13 12 12 12
24 24 24 24 24 22 22 23 21 21 21 21 20 19 17 16 15 15 14 14 13 13 13 13 14 13 13 13 13 13 12 12 12 12 12 12 12 12 11 11 11 11 11 11
23 22 23 23 24 22 21 21 20 20 20 19 18 17 17 16 15 14 14 13 13 13 13 13 13 12 12 12 12 12 11 11 11 11 11 11 10 11 10 10 10 10 10 10
23 22 23 23 23 22 21 19 19 18 18 18 17 17 16 16 15 14 13 13 13 12 12 12 12 12 11 11 11 11 11 11 11 10 10 10 10 10 10 10 10 9 9 9
22 22 22 22 21 21 20 18 18 17 17 17 16 16 15 15 14 14 13 13 12 12 12 11 11 11 11 11 10 10 10 10 10 10 10 10 10 10 10 10 10 9 9 8
Wind_Speed
6 9 7 6 7 10 11 11 11 7 3 6 7 7 3 5 7 8 9 10 10 10 10 10 10 11 11 11 11 11 11 11 10 9 9 9 8 7 6 6 6 5 4 3
9 10 6 6 8 9 10 10 9 4 1 5 7 6 3 6 8 8 9 10 11 11 11 12 12 11 12 12 12 12 12 12 12 9 8 7 7 6 6 5 6 5 4 3
13 6 4 8 9 10 9 9 9 9 4 5 7 4 4 6 8 8 9 10 10 12 13 13 14 14 12 12 13 12 12 13 12 11 8 7 7 6 6 6 6 6 5 4
10 7 6 9 10 9 8 5 6 7 8 5 4 4 4 5 7 10 11 11 11 11 12 13 14 14 14 13 13 13 13 13 12 12 11 11 9 7 7 6 6 6 7 6
9 6 9 12 8 8 5 3 5 6 7 6 2 6 3 4 5 8 11 12 12 12 13 13 15 15 14 14 13 13 13 13 13 12 11 11 9 7 6 6 6 7 7 7
15 10 9 8 4 3 2 4 6 7 7 3 5 5 3 2 1 4 9 12 13 13 12 13 13 13 13 14 14 13 14 13 13 13 12 12 10 8 7 7 7 7 6 7
14 12 8 6 6 5 6 8 7 5 3 4 3 4 4 3 1 2 7 11 13 13 13 13 15 15 15 15 15 15 15 14 14 14 13 13 11 10 10 9 8 8 6 7
13 11 8 7 7 5 5 8 7 8 8 7 1 3 4 3 2 2 6 10 13 14 14 14 16 16 16 17 16 16 16 15 15 14 14 13 12 10 9 10 8 8 7 6
10 8 4 4 4 5 5 6 6 8 8 7 3 2 2 4 4 5 7 10 13 14 15 15 16 16 16 17 17 17 16 16 16 16 14 13 12 11 10 9 9 8 7 6
11 10 7 5 5 3 5 5 5 6 7 7 5 3 2 3 4 6 8 10 12 14 14 15 16 16 16 16 16 16 17 16 16 15 14 12 13 12 11 11 11 9 9 8
12 11 8 7 8 7 6 5 6 6 6 8 7 3 5 2 3 5 7 9 11 13 14 15 15 16 16 16 16 17 17 16 15 15 14 13 13 13 12 12 12 11 10 10
11 9 10 8 3 3 8 8 7 7 6 6 8 3 7 4 3 3 5 7 9 11 13 14 15 15 16 16 16 16 16 16 16 15 14 14 13 13 13 13 13 12 12 12
9 7 9 8 7 7 8 8 8 7 6 8 9 2 8 4 3 2 2 4 7 9 11 12 13 14 14 15 15 16 16 16 16 15 15 14 14 14 14 14 13 13 13 13
7 7 10 10 5 4 7 8 9 10 9 8 8 6 2 1 1 2 1 3 5 8 9 11 11 11 12 12 13 14 14 14 14 14 15 15 15 15 14 14 13 14 13 13
6 9 10 10 6 6 8 9 10 12 12 11 9 7 3 3 3 2 2 3 4 6 7 8 9 9 9 10 10 11 12 12 12 13 14 14 13 12 12 12 13 13 13 14
6 8 9 10 9 9 10 10 11 12 12 12 11 8 3 4 4 4 4 4 4 4 5 5 5 6 6 7 7 8 9 9 9 10 11 10 10 10 11 11 11 12 12 13
9 8 9 10 7 8 12 11 11 10 9 9 9 2 6 5 6 6 5 6 6 5 5 4 3 3 2 2 3 3 4 4 5 6 5 6 6 7 8 8 9 10 11 12
8 9 8 8 7 12 4 1 4 7 7 5 3 3 6 9 10 9 8 8 8 8 8 7 7 7 6 5 6 6 5 5 4 3 2 2 2 3 4 5 7 8 8 9
5 7 7 9 11 11 4 3 3 5 5 3 4 8 11 13 13 11 10 10 10 10 9 9 10 11 10 10 10 10 10 8 7 6 5 4 2 1 1 2 4 5 6 8
5 7 9 9 10 9 2 4 2 4 5 5 7 12 13 12 6 7 8 10 11 11 11 12 13 13 13 12 11 13 12 10 9 8 7 6 5 4 2 1 2 2 4 6
8 7 11 11 10 6 5 5 4 5 1 7 8 11 11 6 6 12 11 11 11 11 12 13 13 13 12 11 12 13 12 11 9 8 8 7 6 5 4 4 3 3 4 5
6 7 8 7 9 3 7 4 2 3 4 6 9 9 9 13 16 15 13 12 11 11 11 12 12 12 11 11 11 12 11 9 8 8 8 8 8 7 6 5 5 5 5 5
3 2 3 3 0 5 3 1 3 2 4 6 9 11 15 16 16 15 14 12 11 11 10 10 11 12 10 9 9 10 8 7 7 8 8 7 7 6 6 6 5 5 5 6
4 1 2 2 1 1 1 1 1 2 5 7 11 14 16 17 17 15 13 12 11 10 9 9 10 10 8 7 8 8 6 6 7 7 6 5 5 6 6 6 6 7 7 7
1 3 4 4 2 1 1 1 3 6 9 12 13 14 15 17 16 15 12 11 10 9 8 7 7 7 7 6 6 6 6 6 6 6 6 6 6 6 6 6 6 7 7 7
2 3 4 3 2 2 2 3 7 10 13 15 16 16 15 15 15 14 11 10 8 8 7 6 6 6 5 5 5 5 5 5 5 5 6 7 7 7 8 8 8 4 7 7
Wind_Direction
226 251 261 309 313 308 307 308 314 329 328 280 282 287 256 191 201 193 183 180 182 184 186 186 186 181 174 175 175 174 173 167 166 164 165 163 164 164 159 152 143 147 134 113
243 247 278 304 297 289 293 300 318 329 300 284 297 286 241 202 203 200 193 189 185 181 186 188 188 181 180 178 179 176 175 172 176 172 170 169 163 171 164 158 154 168 160 153
248 271 307 290 294 301 304 308 325 325 305 236 290 239 176 189 200 201 202 198 193 189 186 185 189 186 184 181 182 180 176 179 180 171 169 163 162 174 173 178 179 182 180 176
253 265 270 285 298 306 307 337 309 301 297 327 318 324 147 184 202 206 203 200 201 195 189 186 188 187 187 186 181 180 179 179 177 177 183 182 187 187 186 188 180 181 189 190
242 249 275 288 306 305 315 325 284 282 289 294 306 310 87 173 216 210 204 200 199 194 191 188 187 185 185 181 179 181 181 182 181 187 191 196 201 196 186 186 178 195 192 198
260 268 275 281 304 291 206 236 239 241 258 308 14 316 19 47 288 204 192 193 193 190 187 185 183 181 179 179 179 181 183 185 186 192 197 206 206 202 196 198 194 203 198 201
242 241 229 233 233 196 229 276 287 285 287 1 47 300 15 41 33 194 180 182 185 186 184 181 180 180 180 183 184 185 186 188 191 195 201 207 209 207 208 210 206 213 210 205
241 240 214 210 245 274 255 282 300 314 325 333 216 331 36 88 117 165 172 172 177 182 184 185 184 184 185 186 187 188 190 192 194 199 204 208 209 215 218 215 219 213 222 217
242 240 171 196 233 264 258 264 304 290 288 291 322 344 134 137 157 164 168 171 178 184 186 188 187 188 188 189 190 192 194 196 199 202 203 207 210 219 223 213 217 220 216 210
247 255 220 176 189 206 280 277 263 282 298 300 305 299 27 136 162 169 178 180 180 184 187 189 190 191 191 192 192 195 198 201 203 204 206 208 210 213 217 219 218 218 211 208
234 245 231 207 231 242 208 227 257 275 289 296 305 338 71 103 159 175 182 187 186 187 189 189 190 192 192 192 193 196 200 203 205 208 209 213 212 212 214 217 217 213 212 206
213 234 244 233 220 270 249 250 241 263 272 268 291 319 103 102 133 165 173 182 189 191 190 189 189 190 193 195 196 198 202 206 208 209 210 213 215 214 215 218 218 213 211 210
179 209 230 223 207 208 229 230 237 253 268 267 276 296 118 118 116 135 178 184 187 190 190 188 188 191 194 198 201 203 206 210 211 210 212 215 216 216 217 219 216 213 212 213
190 221 243 257 264 219 222 222 223 238 257 267 268 286 213 114 77 86 151 182 187 185 186 189 189 193 198 202 206 210 213 214 214 214 215 217 219 218 218 217 214 212 211 213
202 227 237 253 256 246 246 240 228 238 260 274 284 285 308 48 46 60 102 148 157 164 174 185 191 194 200 205 210 214 218 218 217 218 220 222 223 221 220 217 216 214 214 217
206 234 233 239 236 240 248 247 242 245 256 262 271 276 69 82 80 77 84 106 125 137 149 161 175 185 195 205 214 218 220 218 213 218 224 226 223 219 218 219 218 216 218 223
195 211 227 241 225 241 249 246 244 243 247 257 267 272 122 110 86 72 74 85 86 87 93 107 118 123 140 170 186 198 206 199 193 203 217 217 216 217 218 220 221 223 224 226
201 213 229 244 230 249 269 93 258 255 252 252 249 137 130 117 102 79 71 81 82 78 76 72 76 80 82 90 100 101 103 111 121 125 135 157 200 215 217 225 231 235 235 235
205 205 230 242 243 254 223 182 215 241 245 213 182 149 138 134 121 86 70 76 79 78 75 73 72 77 75 76 83 87 83 83 85 82 77 73 80 106 197 235 250 250 250 249
183 211 232 234 251 257 236 126 158 237 227 148 161 160 160 171 165 113 97 88 83 81 80 79 77 75 73 71 78 83 81 75 70 65 62 59 58 54 40 3 319 293 274 268
188 204 226 234 244 252 102 130 183 238 71 137 162 165 172 171 103 120 117 103 95 90 87 84 80 73 68 69 73 76 73 67 64 65 65 61 53 48 37 23 6 337 313 300
205 208 217 231 242 230 118 159 238 38 100 150 159 159 140 118 116 122 120 113 106 99 92 88 85 80 72 69 72 72 66 63 63 61 57 52 43 31 32 24 7 350 329 307
229 280 243 234 327 80 126 92 60 79 139 150 151 140 136 132 130 128 123 117 111 104 98 93 92 86 77 70 71 73 64 60 61 59 52 44 37 29 20 7 353 337 327 317
197 223 248 248 209 110 158 220 163 160 152 143 140 140 139 135 134 132 128 123 117 109 104 99 94 90 83 73 69 70 64 59 58 51 42 31 20 11 9 346 340 335 330 327
280 206 240 246 279 272 100 91 134 132 134 133 135 137 137 134 133 131 128 124 119 112 103 98 94 91 85 75 66 61 53 44 40 34 20 8 4 1 343 336 331 323 326 329
339 296 280 301 19 336 67 116 139 138 136 135 134 132 132 132 131 129 125 124 121 115 110 103 94 86 76 68 61 54 43 32 17 9 2 353 347 345 333 328 322 290 278 266
Height
1517 1514 1507 1504 1503 1504 1503 1503 1501 1498 1499 1500 1499 1499 1500 1505 1508 1510 1513 1515 1517 1519 1522 1524 1527 1530 1533 1536 1539 1543 1546 1550 1553 1556 1559 1561 1563 1565 1566 1567 1567 1567 1567 1567
1513 1508 1503 1503 1503 1502 1500 1501 1497 1496 1499 1500 1497 1497 1498 1502 1505 1508 1510 1513 1515 1517 1520 1521 1525 1528 1531 1534 1538 1541 1545 1548 1552 1555 1558 1560 1563 1565 1566 1567 1566 1567 1567 1567
1509 1501 1502 1502 1500 1499 1496 1497 1497 1498 1496 1497 1497 1494 1497 1499 1503 1506 1508 1510 1512 1514 1516 1519 1522 1525 1528 1532 1536 1540 1543 1547 1551 1554 1557 1560 1561 1563 1565 1565 1566 1566 1566 1567
1503 1499 1501 1500 1497 1496 1497 1493 1496 1497 1497 1493 1498 1497 1493 1494 1499 1502 1505 1507 1509 1512 1514 1517 1520 1523 1526 1530 1534 1538 1541 1545 1549 1553 1556 1558 1561 1563 1564 1565 1565 1565 1565 1566
1498 1497 1499 1498 1495 1495 1494 1495 1495 1495 1496 1495 1493 1495 1488 1491 1493 1495 1499 1503 1506 1509 1512 1515 1518 1521 1525 1528 1532 1536 1540 1544 1548 1551 1554 1557 1559 1562 1563 1563 1564 1564 1564 1565
1495 1494 1495 1494 1494 1495 1495 1496 1495 1493 1490 1498 1496 1498 1492 1485 1488 1490 1494 1500 1504 1507 1510 1513 1517 1520 1524 1527 1531 1534 1538 1542 1546 1549 1552 1555 1557 1559 1561 1561 1562 1563 1563 1563
1495 1491 1491 1492 1493 1495 1495 1496 1499 1499 1498 1497 1494 1494 1490 1484 1486 1489 1492 1497 1501 1505 1508 1511 1515 1518 1522 1525 1529 1532 1536 1540 1543 1547 1550 1552 1555 1557 1558 1560 1561 1561 1562 1562
1495 1494 1485 1488 1489 1489 1491 1492 1505 1513 1506 1495 1489 1491 1484 1484 1487 1490 1492 1495 1499 1503 1506 1510 1513 1517 1520 1523 1527 1530 1534 1537 1541 1544 1547 1550 1552 1554 1556 1557 1559 1559 1560 1561
1488 1490 1483 1486 1487 1487 1490 1488 1484 1494 1494 1498 1489 1484 1480 1484 1486 1489 1491 1494 1498 1501 1505 1508 1511 1515 1518 1521 1525 1528 1531 1535 1538 1541 1544 1547 1549 1551 1553 1554 1555 1557 1557 1557
1479 1489 1482 1486 1488 1489 1487 1484 1489 1493 1506 1506 1495 1488 1484 1484 1485 1487 1490 1493 1496 1500 1503 1506 1509 1513 1516 1520 1523 1526 1530 1532 1536 1539 1541 1544 1546 1548 1550 1551 1552 1553 1554 1554
1477 1486 1484 1485 1487 1485 1490 1490 1488 1487 1492 1503 1504 1492 1477 1481 1483 1485 1488 1491 1494 1498 1501 1504 1507 1511 1514 1518 1521 1524 1527 1529 1532 1535 1538 1541 1543 1545 1546 1547 1548 1549 1550 1551
1475 1479 1483 1481 1480 1482 1482 1482 1486 1495 1495 1493 1496 1490 1477 1480 1483 1485 1487 1490 1493 1496 1499 1502 1505 1509 1512 1515 1518 1521 1524 1526 1529 1532 1535 1537 1539 1540 1542 1543 1544 1545 1546 1547
1475 1481 1491 1490 1489 1485 1482 1480 1481 1484 1488 1490 1494 1488 1478 1481 1483 1486 1488 1490 1492 1495 1497 1500 1503 1506 1510 1513 1516 1518 1521 1523 1526 1529 1531 1532 1534 1536 1537 1539 1540 1541 1542 1543
1474 1476 1482 1488 1482 1475 1480 1480 1481 1484 1485 1486 1485 1481 1477 1479 1483 1487 1489 1490 1492 1493 1496 1498 1501 1504 1507 1510 1512 1515 1517 1520 1522 1524 1526 1528 1529 1531 1533 1534 1535 1537 1538 1538
1473 1475 1474 1471 1470 1472 1475 1476 1479 1482 1479 1481 1478 1476 1475 1481 1486 1488 1490 1490 1491 1493 1494 1497 1499 1502 1504 1506 1509 1511 1513 1516 1518 1520 1521 1523 1524 1526 1528 1529 1531 1532 1533 1534
1472 1473 1473 1475 1471 1473 1475 1473 1474 1476 1475 1476 1476 1476 1479 1485 1488 1489 1490 1491 1492 1493 1494 1495 1497 1499 1501 1503 1505 1507 1509 1511 1512 1514 1516 1518 1519 1521 1522 1524 1526 1527 1528 1529
1469 1473 1477 1476 1471 1476 1479 1469 1470 1470 1470 1473 1475 1475 1482 1486 1489 1491 1492 1492 1493 1493 1494 1495 1496 1497 1498 1500 1501 1503 1505 1506 1508 1509 1511 1513 1514 1515 1517 1519 1520 1521 1522 1523
1468 1472 1472 1473 1479 1490 1469 1465 1466 1468 1468 1470 1474 1479 1483 1488 1493 1494 1494 1494 1495 1495 1495 1496 1496 1496 1497 1498 1499 1499 1501 1503 1504 1505 1507 1508 1510 1511 1512 1513 1515 1515 1516 1517
1467 1470 1471 1473 1477 1474 1467 1466 1467 1470 1469 1471 1474 1480 1486 1489 1491 1496 1497 1497 1497 1497 1497 1497 1498 1497 1498 1498 1498 1498 1500 1502 1502 1503 1504 1506 1507 1508 1508 1509 1509 1510 1510 1510
1469 1469 1470 1473 1480 1482 1467 1466 1469 1470 1471 1472 1476 1480 1484 1486 1484 1496 1500 1499 1499 1499 1499 1499 1500 1499 1499 1499 1500 1499 1501 1502 1502 1502 1503 1504 1504 1504 1505 1505 1505 1505 1504 1504
1468 1470 1469 1470 1474 1465 1464 1468 1470 1475 1473 1474 1476 1480 1483 1485 1487 1496 1500 1501 1502 1502 1502 1501 1501 1502 1502 1502 1502 1501 1502 1502 1503 1503 1503 1503 1502 1502 1502 1501 1501 1501 1500 1499
1463 1466 1469 1469 1474 1471 1467 1468 1469 1472 1474 1475 1478 1481 1485 1488 1492 1497 1500 1502 1504 1505 1505 1504 1503 1503 1504 1504 1504 1504 1504 1504 1504 1504 1503 1502 1501 1501 1500 1499 1498 1497 1496 1496
1461 1461 1459 1462 1467 1468 1468 1470 1473 1474 1475 1477 1479 1482 1486 1490 1495 1499 1502 1504 1505 1506 1506 1506 1505 1505 1506 1507 1506 1506 1506 1505 1504 1503 1503 1502 1501 1500 1498 1497 1496 1495 1494 1493
1463 1465 1463 1464 1463 1467 1470 1472 1474 1475 1476 1478 1481 1484 1487 1491 1496 1500 1503 1505 1506 1507 1508 1508 1508 1508 1509 1509 1508 1507 1506 1505 1505 1504 1503 1502 1500 1499 1497 1496 1495 1493 1492 1490
1461 1463 1463 1464 1466 1468 1471 1472 1474 1475 1477 1480 1483 1487 1490 1494 1498 1502 1505 1507 1508 1509 1509 1510 1510 1510 1510 1509 1508 1508 1507 1506 1505 1504 1503 1501 1500 1498 1496 1494 1492 1490 1488 1485
1465 1466 1465 1464 1469 1469 1472 1473 1475 1477 1479 1482 1485 1489 1494 1497 1500 1504 1506 1508 1509 1510 1510 1511 1511 1511 1510 1510 1509 1508 1507 1506 1504 1503 1502 1500 1498 1496 1494 1492 1489 1486 1483 1479